Miscellaneous Local Product
Issued by NWS Hastings, NE

Home | Current Version | Previous Version | Graphics & Text | Print | Product List | Glossary On
Versions: 1 2 3 4 5 6 7 8 9 10 11 12 13 14 15 16 17 18 19 20 21 22 23 24 25 26 27 28 29 30 31 32 33 34 35 36 37 38 39 40 41 42 43 44 45 46 47 48 49 50
000
AXUS43 KGID 232002
MISGRI

GID CWA HOURLY WEATHER ROUNDUP
NATIONAL WEATHER SERVICE HASTINGS NE
300 PM CDT WED JUL 23 2014

NOTE: "FAIR" INDICATES FEW OR NO CLOUDS BELOW 12,000 FEET WITH NO
SIGNIFICANT WEATHER AND/OR OBSTRUCTIONS TO VISIBILITY.

...SOUTH CENTRAL NEBRASKA...

CITY           SKY/WX    TMP DP  RH WIND       PRES   REMARKS
GRAND ISLAND   MOSUNNY   81  58  45 SE9       30.23F
HASTINGS       PTSUNNY   78  58  49 E8        30.22F
KEARNEY        MOSUNNY   81  59  47 E13       30.22F
ORD            SUNNY     81  57  43 SE12      30.23F
YORK           PTSUNNY   81  61  50 E6        30.23F
AURORA         PTSUNNY   81  61  51 SE7       30.22F
LEXINGTON      PTSUNNY   78  64  60 E13       30.21F
HOLDREGE       PTSUNNY   78  62  58 E16       30.20F
HEBRON         CLOUDY    82  57  42 E6        30.21F

...NEBRASKA PANHANDLE...

CITY           SKY/WX    TMP DP  RH WIND       PRES   REMARKS
CHADRON        SUNNY     92  54  27 SE20G29   30.17F HX  90
ALLIANCE       SUNNY     92  55  28 S21G29    30.23F HX  90
SCOTTSBLUFF    SUNNY     90  65  43 S17       30.21F HX  92
SIDNEY         SUNNY     89  63  41 S20G29    30.28F HX  90

...WESTERN AND NORTH CENTRAL NEBRASKA...

CITY           SKY/WX    TMP DP  RH WIND       PRES   REMARKS
VALENTINE      SUNNY     87  59  38 SE14      30.23S
AINSWORTH      SUNNY     82  55  39 SE15      30.24F
ONEILL         SUNNY     82  48  30 E10       30.25F
BROKEN BOW     SUNNY     80  57  45 SE12G20   30.23F
IMPERIAL       SUNNY     87  61  41 SW8       30.21F
NORTH PLATTE   SUNNY     79  65  62 E16       30.22F
MCCOOK         CLOUDY    82  65  56 E6        30.19F

...EASTERN NEBRASKA...

CITY           SKY/WX    TMP DP  RH WIND       PRES   REMARKS
NORFOLK        SUNNY     82  56  40 E9        30.22F
SO SIOUX CITY  SUNNY     83  57  41 VRB5      30.22F
TEKAMAH        SUNNY     85  57  38 NE9       30.20F
COLUMBUS         N/A    N/A N/A N/A MISG        N/A
ALBION         SUNNY     81  56  42 NE6       30.24F
OMAHA EPPLEY   MOSUNNY   84  58  40 NE8       30.20F
OFFUTT AFB     SUNNY     85  61  44 N7        30.19F
MILLARD        SUNNY     83  57  40 NE3       30.20F
LINCOLN        SUNNY     86  57  37 VRB5G16   30.21F
NEBRASKA CITY  MOSUNNY   82  58  44 NE7       30.20S
BEATRICE       PTSUNNY   83  62  48 NE8       30.21S
FALLS CITY     MOSUNNY   85  65  51 NE8       30.17S

...NORTHERN KANSAS...

CITY           SKY/WX    TMP DP  RH WIND       PRES   REMARKS
GOODLAND       SUNNY     87  60  40 SE16G22   30.28F
HILL CITY      CLOUDY    82  64  54 SE14      30.16F
NORTON         CLEAR     79  63  57 SE7       30.15F
PHILLIPSBURG   SUNNY     72  66  83 E14       30.17F
SMITH CENTER   SUNNY     72  66  83 E15       30.17F
HAYS           CLOUDY    84  63  48 SE6       30.19F
RUSSELL        PTSUNNY   85  65  51 E5        30.18F
CONCORDIA      CLOUDY    85  64  49 E8        30.18F
SALINA         CLOUDY    90  60  36 N15       30.18F
TOPEKA         SUNNY     91  64  40 NE12G17   30.14S HX  92



USA.gov is the U.S. government's official web portal to all federal, state and local government web resources and services.